Location: Newark
(30.1000°N, 109.4667°E)
Time: 12:41:50
(UTC+00:00)

Vanguard 1 Rocket - Pass Details

Date: 22 February 2020
Orbit: 650 x 4226 km, 34.3° (Epoch: 03 April)

Event Time Altitude Azimuth Distance (km) Brightness Sun altitude
Rises 14:12:19 0° 199° (SSW) 7,833 12.2 -47.2°
Reaches altitude 10° 14:21:26 10° 182° (S) 6,100 11.4 -49.0°
Enters shadow 14:22:13 11° 180° (S) 5,955 11.3 -49.2°
